CEB24 RPVA-RPLL

Flight info

Callsign CEB24
Flight time 1h 23m
Altitude 31000
Route MALAG5R MALAG W9 AKDAP AKDAP3R
Aircraft A321/M-SDE3FGHIRWY/LB1

Departure

Time 2026-04-30 12:32
Airport Daniel Z. Romualdez Airport (RPVA)

Arrival

Time 2026-04-30 13:55
Airport Ninoy Aquino International Airport (RPLL)
Time Latitude Longitude Altitude Speed Heading
2026-04-30 12:32 11.33790 125.03189 3197 ft 267 kts 338°
2026-04-30 12:32 11.35360 125.02101 3930 ft 278 kts 320°
2026-04-30 12:32 11.36770 125.00737 4714 ft 282 kts 322°
2026-04-30 12:32 11.38304 124.99477 5466 ft 285 kts 326°
2026-04-30 12:33 11.39915 124.98281 6234 ft 288 kts 327°
2026-04-30 12:33 11.41567 124.97099 6962 ft 291 kts 328°
2026-04-30 12:33 11.43233 124.95908 7673 ft 294 kts 328°
2026-04-30 12:33 11.44915 124.94693 8383 ft 298 kts 327°
2026-04-30 12:34 11.46608 124.93457 9087 ft 301 kts 327°
2026-04-30 12:34 11.48314 124.92196 9777 ft 305 kts 327°
2026-04-30 12:34 11.50041 124.90913 10279 ft 314 kts 327°
2026-04-30 12:34 11.51873 124.89556 10411 ft 337 kts 327°
2026-04-30 12:35 11.53817 124.88112 10721 ft 350 kts 326°
2026-04-30 12:35 11.55788 124.86642 11296 ft 354 kts 326°
2026-04-30 12:35 11.57789 124.85149 11924 ft 357 kts 326°
2026-04-30 12:35 11.59798 124.83649 12555 ft 360 kts 326°
2026-04-30 12:36 11.61820 124.82140 13177 ft 362 kts 326°
2026-04-30 12:36 11.63876 124.80605 13802 ft 365 kts 326°
2026-04-30 12:36 11.65934 124.79070 14343 ft 368 kts 326°
2026-04-30 12:36 11.68006 124.77524 14867 ft 371 kts 326°
2026-04-30 12:37 11.70104 124.75958 15383 ft 375 kts 326°
2026-04-30 12:37 11.72220 124.74380 15891 ft 378 kts 326°
2026-04-30 12:37 11.74351 124.72792 16414 ft 382 kts 326°
2026-04-30 12:37 11.76501 124.71187 16905 ft 386 kts 326°
2026-04-30 12:38 11.78689 124.69553 17417 ft 389 kts 326°
2026-04-30 12:38 11.80882 124.67914 17903 ft 393 kts 326°
2026-04-30 12:38 11.83096 124.66260 18369 ft 396 kts 326°
2026-04-30 12:38 11.85331 124.64593 18779 ft 399 kts 326°
2026-04-30 12:39 11.87585 124.62912 19220 ft 401 kts 326°
2026-04-30 12:39 11.89849 124.61220 19657 ft 404 kts 326°
2026-04-30 12:39 11.92113 124.59527 20079 ft 406 kts 325°
2026-04-30 12:39 11.94400 124.57816 20500 ft 408 kts 325°
2026-04-30 12:40 11.96701 124.56094 20915 ft 410 kts 325°
2026-04-30 12:40 11.99015 124.54361 21326 ft 413 kts 325°
2026-04-30 12:40 12.01336 124.52622 21727 ft 415 kts 325°
2026-04-30 12:40 12.03676 124.50872 22117 ft 417 kts 325°
2026-04-30 12:41 12.06024 124.49118 22522 ft 419 kts 325°
2026-04-30 12:41 12.08382 124.47352 22906 ft 422 kts 324°
2026-04-30 12:41 12.10750 124.45574 23285 ft 424 kts 324°
2026-04-30 12:41 12.13132 124.43787 23652 ft 426 kts 324°
2026-04-30 12:42 12.15534 124.41988 23966 ft 428 kts 324°
2026-04-30 12:42 12.17944 124.40185 24274 ft 431 kts 324°
2026-04-30 12:42 12.20341 124.38394 24583 ft 433 kts 324°
2026-04-30 12:42 12.22797 124.36556 24905 ft 434 kts 324°
2026-04-30 12:43 12.25311 124.34671 25236 ft 436 kts 324°
2026-04-30 12:43 12.27770 124.32827 25555 ft 438 kts 324°
2026-04-30 12:43 12.30236 124.30978 25864 ft 440 kts 324°
2026-04-30 12:43 12.32709 124.29123 26172 ft 443 kts 324°
2026-04-30 12:44 12.34345 124.27894 26365 ft 444 kts 324°
2026-04-30 12:44 12.36853 124.26013 26675 ft 446 kts 324°
2026-04-30 12:44 12.40200 124.23469 27078 ft 449 kts 323°
2026-04-30 12:44 12.42690 124.21532 27378 ft 451 kts 323°
2026-04-30 12:45 12.44337 124.20238 27577 ft 452 kts 323°
2026-04-30 12:45 12.47687 124.17592 27970 ft 455 kts 323°
2026-04-30 12:45 12.50194 124.15614 28257 ft 457 kts 323°
2026-04-30 12:45 12.51874 124.14292 28442 ft 458 kts 323°
2026-04-30 12:46 12.55239 124.11654 28827 ft 461 kts 323°
2026-04-30 12:46 12.57799 124.09655 29114 ft 463 kts 323°
2026-04-30 12:46 12.60371 124.07653 29385 ft 465 kts 323°
2026-04-30 12:46 12.62955 124.05641 29659 ft 467 kts 323°
2026-04-30 12:47 12.64666 124.04306 29849 ft 468 kts 323°
2026-04-30 12:47 12.67274 124.02265 30104 ft 469 kts 322°
2026-04-30 12:47 12.69855 124.00245 30319 ft 471 kts 322°
2026-04-30 12:47 12.72464 123.98203 30525 ft 474 kts 322°
2026-04-30 12:48 12.75090 123.96146 30740 ft 476 kts 322°
2026-04-30 12:48 12.77725 123.94082 30918 ft 477 kts 322°
2026-04-30 12:48 12.82885 123.90040 30977 ft 455 kts 322°
2026-04-30 12:49 12.87964 123.86055 30980 ft 467 kts 322°
2026-04-30 12:49 12.93211 123.81935 30984 ft 483 kts 322°
2026-04-30 12:50 12.98620 123.77687 30981 ft 494 kts 322°
2026-04-30 12:50 13.04098 123.73397 30981 ft 496 kts 322°
2026-04-30 12:51 13.09569 123.69108 30987 ft 495 kts 322°
2026-04-30 12:51 13.14993 123.64713 30986 ft 494 kts 319°
2026-04-30 12:52 13.20195 123.60149 30987 ft 494 kts 318°
2026-04-30 12:52 13.25401 123.55504 30991 ft 493 kts 318°
2026-04-30 12:53 13.30622 123.50938 30996 ft 493 kts 319°
2026-04-30 12:53 13.35861 123.46405 31003 ft 493 kts 319°
2026-04-30 12:54 13.41104 123.41860 31002 ft 492 kts 319°
2026-04-30 12:54 13.46336 123.37316 31002 ft 492 kts 319°
2026-04-30 12:55 13.51562 123.32764 31005 ft 491 kts 319°
2026-04-30 12:55 13.56654 123.28092 30994 ft 490 kts 311°
2026-04-30 12:56 13.60442 123.22323 30997 ft 488 kts 295°
2026-04-30 12:56 13.63431 123.16055 30995 ft 487 kts 295°
2026-04-30 12:57 13.66332 123.09981 30996 ft 487 kts 295°
2026-04-30 12:57 13.69359 123.03646 30996 ft 487 kts 295°
2026-04-30 12:58 13.72359 122.97364 30993 ft 486 kts 295°
2026-04-30 12:58 13.75338 122.91109 30990 ft 486 kts 295°
2026-04-30 12:59 13.78307 122.84865 30986 ft 485 kts 295°
2026-04-30 12:59 13.81269 122.78630 30984 ft 485 kts 295°
2026-04-30 13:00 13.84216 122.72429 30981 ft 484 kts 295°
2026-04-30 13:00 13.87179 122.66191 30976 ft 484 kts 295°
2026-04-30 13:01 13.90141 122.59957 30978 ft 484 kts 295°
2026-04-30 13:01 13.93092 122.53718 30975 ft 484 kts 295°
2026-04-30 13:02 13.96023 122.47512 30978 ft 473 kts 295°
2026-04-30 13:02 13.97437 122.44527 30984 ft 455 kts 295°
2026-04-30 13:02 13.98801 122.41648 30981 ft 441 kts 295°
2026-04-30 13:03 14.01449 122.36054 30984 ft 435 kts 295°
2026-04-30 13:03 14.04111 122.30419 30983 ft 434 kts 295°
2026-04-30 13:04 14.06745 122.24836 30982 ft 434 kts 295°
2026-04-30 13:04 14.09366 122.19287 30984 ft 433 kts 294°
2026-04-30 13:05 14.11987 122.13741 30987 ft 433 kts 295°
2026-04-30 13:06 14.15963 122.05304 30052 ft 435 kts 295°
2026-04-30 13:06 14.17272 122.02516 29472 ft 432 kts 295°
2026-04-30 13:06 14.18580 121.99729 28926 ft 428 kts 294°
2026-04-30 13:06 14.19885 121.96947 28392 ft 424 kts 295°
2026-04-30 13:07 14.21155 121.94248 28219 ft 412 kts 295°
2026-04-30 13:07 14.22387 121.91623 28062 ft 399 kts 294°
2026-04-30 13:07 14.23541 121.89053 27711 ft 393 kts 292°
2026-04-30 13:07 14.24631 121.86524 27225 ft 391 kts 292°
2026-04-30 13:08 14.25708 121.83968 26615 ft 387 kts 292°
2026-04-30 13:08 14.26768 121.81430 25901 ft 384 kts 292°
2026-04-30 13:08 14.27828 121.78908 25273 ft 381 kts 292°
2026-04-30 13:08 14.28887 121.76412 24745 ft 379 kts 292°
2026-04-30 13:09 14.29960 121.73903 24208 ft 377 kts 293°
2026-04-30 13:09 14.31005 121.71469 23693 ft 377 kts 293°
2026-04-30 13:09 14.31991 121.68945 23078 ft 385 kts 287°
2026-04-30 13:09 14.32812 121.66257 22432 ft 394 kts 286°
2026-04-30 13:10 14.33615 121.63535 21800 ft 395 kts 286°
2026-04-30 13:10 14.34409 121.60827 21314 ft 392 kts 286°
2026-04-30 13:10 14.35119 121.58133 20869 ft 387 kts 277°
2026-04-30 13:10 14.35100 121.55395 20423 ft 381 kts 257°
2026-04-30 13:11 14.34315 121.52811 19951 ft 377 kts 248°
2026-04-30 13:11 14.33374 121.50293 19487 ft 375 kts 247°
2026-04-30 13:11 14.32428 121.47795 19050 ft 373 kts 247°
2026-04-30 13:11 14.31486 121.45305 18622 ft 371 kts 247°
2026-04-30 13:12 14.30559 121.42845 18189 ft 369 kts 247°
2026-04-30 13:12 14.29632 121.40381 17705 ft 367 kts 247°
2026-04-30 13:12 14.28702 121.37931 17225 ft 364 kts 247°
2026-04-30 13:13 14.26843 121.33066 16325 ft 360 kts 247°
2026-04-30 13:13 14.25936 121.30708 15904 ft 357 kts 247°
2026-04-30 13:13 14.24104 121.25978 15081 ft 353 kts 247°
2026-04-30 13:14 14.23181 121.23612 14673 ft 351 kts 247°
2026-04-30 13:14 14.22270 121.21279 14248 ft 349 kts 247°
2026-04-30 13:14 14.20455 121.16664 13446 ft 346 kts 247°
2026-04-30 13:15 14.19553 121.14375 12999 ft 344 kts 247°
2026-04-30 13:15 14.18412 121.09666 12149 ft 341 kts 266°
2026-04-30 13:15 14.18288 121.07225 11714 ft 339 kts 267°
2026-04-30 13:16 14.18176 121.04808 11316 ft 337 kts 267°
2026-04-30 13:16 14.18065 121.02393 10896 ft 336 kts 267°
2026-04-30 13:16 14.17954 120.99990 10487 ft 335 kts 267°
2026-04-30 13:17 14.17744 120.95334 10186 ft 314 kts 267°
2026-04-30 13:17 14.17642 120.93102 9886 ft 311 kts 267°
2026-04-30 13:17 14.17783 120.89408 9054 ft 313 kts 284°
2026-04-30 13:18 14.18549 120.86508 8404 ft 314 kts 287°
2026-04-30 13:18 14.19707 120.82265 7424 ft 294 kts 287°
2026-04-30 13:18 14.20124 120.80971 7105 ft 283 kts 297°
2026-04-30 13:19 14.21649 120.78915 6486 ft 261 kts 323°
2026-04-30 13:19 14.23011 120.77733 6006 ft 252 kts 323°
2026-04-30 13:19 14.24339 120.76581 5523 ft 249 kts 323°
2026-04-30 13:19 14.25644 120.75450 5284 ft 238 kts 323°
2026-04-30 13:20 14.26910 120.74352 5165 ft 235 kts 323°
2026-04-30 13:20 14.27749 120.73627 5098 ft 235 kts 322°
2026-04-30 13:20 14.29003 120.72549 5005 ft 234 kts 326°
2026-04-30 13:20 14.30422 120.71790 5009 ft 229 kts 347°
2026-04-30 13:21 14.31986 120.71612 5011 ft 226 kts
2026-04-30 13:21 14.33479 120.72035 5010 ft 222 kts 30°
2026-04-30 13:21 14.34679 120.73007 5007 ft 220 kts 51°
2026-04-30 13:22 14.36260 120.75714 4979 ft 221 kts 60°
2026-04-30 13:22 14.37026 120.77090 4766 ft 221 kts 60°
2026-04-30 13:22 14.38581 120.79880 4211 ft 219 kts 60°
2026-04-30 13:23 14.39303 120.81176 3967 ft 217 kts 61°
2026-04-30 13:23 14.40775 120.83817 3406 ft 208 kts 61°
2026-04-30 13:24 14.42158 120.86301 2910 ft 185 kts 61°
2026-04-30 13:24 14.43355 120.88450 2456 ft 162 kts 62°
2026-04-30 13:25 14.43532 120.88768 2395 ft 159 kts 62°
2026-04-30 13:25 14.45390 120.92108 1709 ft 146 kts 62°
2026-04-30 13:26 14.46839 120.94712 1176 ft 136 kts 63°
2026-04-30 13:26 14.47783 120.96410 831 ft 138 kts 62°
2026-04-30 13:27 14.48081 120.96946 754 ft 140 kts 62°
2026-04-30 13:28 14.49534 120.99517 204 ft 139 kts 63°
2026-04-30 13:28 14.50496 121.01298 433 ft 159 kts 62°
2026-04-30 13:28 14.51014 121.02302 1173 ft 157 kts 64°
2026-04-30 13:29 14.51936 121.04436 2178 ft 179 kts 67°
2026-04-30 13:30 14.53745 121.08789 2755 ft 193 kts 67°
2026-04-30 13:31 14.54969 121.11335 3008 ft 203 kts 60°
2026-04-30 13:31 14.55469 121.15475 3373 ft 220 kts 126°
2026-04-30 13:32 14.52897 121.17298 4104 ft 228 kts 147°
2026-04-30 13:32 14.50157 121.18970 4813 ft 229 kts 147°
2026-04-30 13:33 14.47396 121.20647 5679 ft 233 kts 147°
2026-04-30 13:33 14.44580 121.22368 6795 ft 237 kts 147°
2026-04-30 13:34 14.43150 121.23246 6972 ft 239 kts 147°
2026-04-30 13:34 14.38880 121.25857 7017 ft 237 kts 148°
2026-04-30 13:35 14.37316 121.26387 7013 ft 241 kts 175°
2026-04-30 13:35 14.34428 121.24825 7028 ft 248 kts 232°
2026-04-30 13:36 14.32517 121.21849 7013 ft 248 kts 237°
2026-04-30 13:36 14.31901 121.20858 7019 ft 249 kts 237°
2026-04-30 13:36 14.30031 121.17860 7019 ft 249 kts 237°
2026-04-30 13:37 14.29093 121.16358 7019 ft 250 kts 237°
2026-04-30 13:37 14.27211 121.13338 7015 ft 251 kts 237°
2026-04-30 13:38 14.25616 121.10786 7019 ft 252 kts 239°
2026-04-30 13:38 14.24673 121.09261 7016 ft 252 kts 237°
2026-04-30 13:38 14.22781 121.06222 7016 ft 252 kts 237°
2026-04-30 13:39 14.20877 121.03174 7020 ft 252 kts 237°
2026-04-30 13:39 14.18981 121.00138 7026 ft 252 kts 237°
2026-04-30 13:40 14.18035 120.98619 7027 ft 252 kts 237°
2026-04-30 13:40 14.17086 120.97101 7030 ft 252 kts 237°
2026-04-30 13:40 14.16136 120.95578 7031 ft 252 kts 237°
2026-04-30 13:40 14.15188 120.94061 7028 ft 252 kts 237°
2026-04-30 13:41 14.14241 120.92546 7032 ft 252 kts 237°
2026-04-30 13:41 14.13292 120.91030 7032 ft 252 kts 237°
2026-04-30 13:41 14.12332 120.89493 7032 ft 252 kts 237°
2026-04-30 13:41 14.11404 120.88004 7033 ft 251 kts 237°
2026-04-30 13:42 14.10448 120.86476 7035 ft 251 kts 237°
2026-04-30 13:42 14.09505 120.84967 7033 ft 251 kts 237°
2026-04-30 13:42 14.07615 120.81945 7026 ft 251 kts 237°
2026-04-30 13:43 14.06668 120.80429 7030 ft 252 kts 237°
2026-04-30 13:43 14.05762 120.78885 7030 ft 252 kts 248°
2026-04-30 13:43 14.05441 120.77152 6812 ft 246 kts 278°
2026-04-30 13:43 14.05993 120.75531 6522 ft 239 kts 310°
2026-04-30 13:44 14.07164 120.74356 6209 ft 235 kts 325°
2026-04-30 13:44 14.08464 120.73330 5884 ft 235 kts 327°
2026-04-30 13:44 14.09774 120.72331 5598 ft 235 kts 327°
2026-04-30 13:44 14.11093 120.71335 5309 ft 234 kts 327°
2026-04-30 13:45 14.13708 120.69366 5022 ft 233 kts 327°
2026-04-30 13:45 14.15027 120.68379 5024 ft 234 kts 327°
2026-04-30 13:45 14.16338 120.67393 5022 ft 233 kts 327°
2026-04-30 13:46 14.17753 120.66628 5020 ft 227 kts 349°
2026-04-30 13:46 14.19302 120.66570 5024 ft 223 kts 13°
2026-04-30 13:46 14.20829 120.66854 5027 ft 224 kts 13°
2026-04-30 13:46 14.22360 120.67142 5025 ft 225 kts 12°
2026-04-30 13:47 14.23910 120.67434 5022 ft 225 kts 12°
2026-04-30 13:47 14.25436 120.67721 5024 ft 225 kts 12°
2026-04-30 13:47 14.26968 120.68011 5019 ft 223 kts 13°
2026-04-30 13:47 14.28500 120.68304 5021 ft 225 kts 13°
2026-04-30 13:48 14.30016 120.68679 5023 ft 223 kts 21°
2026-04-30 13:48 14.31450 120.69326 5024 ft 222 kts 31°
2026-04-30 13:48 14.32726 120.70205 5017 ft 221 kts 41°
2026-04-30 13:48 14.33754 120.71357 5018 ft 221 kts 55°
2026-04-30 13:49 14.34575 120.72690 5016 ft 221 kts 60°
2026-04-30 13:49 14.35342 120.74063 5013 ft 221 kts 60°
2026-04-30 13:49 14.36107 120.75441 5001 ft 221 kts 60°
2026-04-30 13:49 14.36872 120.76814 4817 ft 221 kts 60°
2026-04-30 13:50 14.37636 120.78184 4561 ft 220 kts 60°
2026-04-30 13:50 14.39155 120.80910 4001 ft 219 kts 61°
2026-04-30 13:50 14.39915 120.82275 3720 ft 219 kts 61°
2026-04-30 13:51 14.40672 120.83634 3444 ft 218 kts 61°
2026-04-30 13:51 14.41427 120.84989 3167 ft 218 kts 62°
2026-04-30 13:51 14.42181 120.86342 2894 ft 217 kts 62°
2026-04-30 13:51 14.42933 120.87693 2611 ft 217 kts 62°
2026-04-30 13:52 14.43680 120.89036 2364 ft 214 kts 61°
2026-04-30 13:52 14.44411 120.90349 2072 ft 206 kts 61°
2026-04-30 13:52 14.45093 120.91573 1813 ft 183 kts 62°
2026-04-30 13:52 14.45675 120.92617 1594 ft 153 kts 63°
2026-04-30 13:53 14.46184 120.93532 1393 ft 143 kts 62°
2026-04-30 13:53 14.46667 120.94401 1226 ft 136 kts 62°
2026-04-30 13:53 14.47137 120.95248 1056 ft 136 kts 62°
2026-04-30 13:53 14.47605 120.96091 900 ft 137 kts 62°
2026-04-30 13:54 14.48078 120.96939 737 ft 137 kts 62°
2026-04-30 13:54 14.48554 120.97797 569 ft 138 kts 62°
2026-04-30 13:54 14.49031 120.98654 401 ft 136 kts 63°
2026-04-30 13:54 14.49498 120.99512 213 ft 140 kts 61°
2026-04-30 13:55 14.49993 121.00366 71 ft 136 kts 63°
2026-04-30 13:55 14.50394 121.01106 67 ft 84 kts 61°
2026-04-30 13:55 14.50565 121.01409 68 ft 36 kts 59°
2026-04-30 13:55 14.50706 121.01657 61 ft 42 kts 53°
2026-04-30 13:56 14.50830 121.01766 62 ft 1 kts 41°
2026-04-30 13:56 14.50863 121.01786 68 ft 4 kts 13°
2026-04-30 13:56 14.50896 121.01775 65 ft 5 kts 327°
2026-04-30 13:56 14.50927 121.01747 64 ft 6 kts 317°
2026-04-30 13:57 14.50984 121.01689 63 ft 18 kts 315°
2026-04-30 13:57 14.51100 121.01569 61 ft 27 kts 315°
2026-04-30 13:57 14.51190 121.01476 65 ft 8 kts 315°
2026-04-30 13:57 14.51226 121.01440 62 ft 7 kts 317°
2026-04-30 13:58 14.51267 121.01428 65 ft 6 kts
2026-04-30 13:58 14.51268 121.01428 65 ft 0 kts
2026-04-30 14:01 14.51271 121.01429 66 ft 3 kts 12°
2026-04-30 14:01 14.51309 121.01468 58 ft 12 kts 48°
2026-04-30 14:01 14.51418 121.01580 62 ft 19 kts 39°
2026-04-30 14:02 14.51516 121.01664 64 ft 21 kts 45°
2026-04-30 14:02 14.51637 121.01779 67 ft 15 kts 22°
2026-04-30 14:02 14.51697 121.01770 69 ft 5 kts 334°
2026-04-30 14:02 14.51720 121.01747 64 ft 4 kts 311°
2026-04-30 14:03 14.51727 121.01724 67 ft 3 kts 265°
2026-04-30 14:03 14.51712 121.01709 65 ft 4 kts 213°
2026-04-30 14:03 14.51700 121.01704 65 ft 2 kts 202°
2026-04-30 14:03 14.51688 121.01700 64 ft 1 kts 199°
2026-04-30 14:04 14.51682 121.01698 66 ft 0 kts 198°